This demonstration page uses our WeatherBlox Daily Observations layout. Learn more.

Left ArrowRight Arrow

44.89941, -97.11507

Hourly Observations for October 30, 2021

Temp ( °F °C ) Dew Point ( °F °C ) Humidity (%) Winds ( mph kmh ) Pressure ( in mb ) Visibility ( mi km ) Precip ( " mm )
12:53 am 00:53 Clear 41 5 35 1.7 79 79 SSE 12 19 29.86 1011 10 16 0.00 0.00
1:53 am 01:53 Clear 39 3.9 34 1.1 82 82 SSE 8 13 29.85 1011 10 16 0.00 0.00
2:53 am 02:53 Clear 37 2.8 33 0.6 86 86 SSE 8 13 29.83 1010 10 16 0.00 0.00
3:53 am 03:53 Clear 37 2.8 33 0.6 86 86 SSE 10 17 29.81 1010 10 16 0.00 0.00
4:53 am 04:53 Clear 38 3.3 33 0.6 83 83 SSE 10 17 29.79 1009 10 16 0.00 0.00
5:53 am 05:53 Clear 38 3.3 33 0.6 83 83 SSE 12 19 29.78 1009 10 16 0.00 0.00
6:53 am 06:53 Clear 37 2.8 33 0.6 86 86 SSE 10 17 29.78 1009 10 16 0.00 0.00
7:53 am 07:53 Clear 37 2.8 33 0.6 86 86 SSE 10 17 29.78 1008 10 16 0.00 0.00
8:53 am 08:53 Sunny 38 3.3 34 1.1 86 86 S 10 17 29.78 1008 10 16 0.00 0.00
9:53 am 09:53 Sunny 43 6.1 37 2.8 80 80 SSE 8 13 29.79 1009 10 16 0.00 0.00
10:53 am 10:53 Sunny 48 8.9 38 3.3 68 68 SW 9 15 29.80 1009 10 16 0.00 0.00
11:53 am 11:53 Sunny 52 11.1 39 3.9 61 61 WNW 16 26 29.82 1010 10 16 0.00 0.00
12:53 pm 12:53 Sunny 52 11.1 41 5 66 66 NNW 21 33 29.84 1011 10 16 0.00 0.00
1:53 pm 13:53 Partly Cloudy 51 10.6 41 5 69 69 NNW 23 37 29.85 1011 10 16 0.00 0.00
2:40 pm 14:40 Mostly Cloudy 49 9.4 41 5 74 74 NNW 26 43 29.87 1012 10 16 0.00 0.00
2:53 pm 14:53 Cloudy 48 8.9 40 4.4 74 74 N 26 43 29.89 1012 10 16 0.00 0.00
3:53 pm 15:53 Cloudy with Light Rain 46 7.8 39 3.9 77 77 N 24 39 29.93 1013 10 16 0.00 0.00
4:53 pm 16:53 Cloudy 45 7.2 39 3.9 80 80 NNW 17 28 29.95 1014 10 16 0.00 0.00
5:53 pm 17:53 Cloudy 44 6.7 37 2.8 76 76 N 21 33 29.98 1015 10 16 0.00 0.00
6:53 pm 18:53 Cloudy 44 6.7 35 1.7 71 71 N 20 31 30.02 1017 10 16 0.00 0.00
7:04 pm 19:04 Mostly Cloudy 42 5.6 35 1.7 76 76 N 15 24 30.03 1017 10 16 0.00 0.00
7:53 pm 19:53 Clear 41 5 35 1.7 79 79 NNW 13 20 30.04 1017 10 16 0.00 0.00
8:53 pm 20:53 Clear 40 4.4 35 1.7 83 83 NW 9 15 30.06 1018 10 16 0.00 0.00
9:53 pm 21:53 Clear 39 3.9 35 1.7 86 86 NW 10 17 30.07 1018 10 16 0.00 0.00
10:53 pm 22:53 Clear 38 3.3 34 1.1 86 86 NW 10 17 30.09 1019 10 16 0.00 0.00
11:53 pm 23:53 Clear 37 2.8 33 0.6 86 86 NW 9 15 30.10 1019 10 16 0.00 0.00

Powered by AerisWeather